Flag for Japan Weather past 2 weeks in Hamamatsu, Japan

Now
68 °F

Fog.


Feels Like: 68 °F
Forecast: 69 / 79 °F
Wind: 5 mph from West

Location: Omaezaki

Current Time: Jul 7, 2015 at 11:20:10 PM

Latest Report: Jul 7, 2015 at 10:00 PM


Visibility: 1 mi

Pressure: 29.99 "Hg

Humidity: 99%

Dew point: 68 °F

Location of HamamatsuLocation

Historic Weather in Hamamatsu — Graph

°F

Hamamatsu temperature yesterday

Maximum temperature yesterday: 68 °F (at 10:00 PM)
Minimum temperature yesterday: 67 °F (at 1:00 AM)
Average temperature yesterday: 67 °F

Past Weeks' High & Low Weather Summary

 TemperatureHumidityPressure
High80 °F (Jun 28, 11:00 AM)100% (Jun 26, 11:00 PM)29.99 "Hg (Jun 26, 11:00 PM)
Low65 °F (Jul 5, 7:00 AM)49% (Jun 28, 11:00 AM)29.29 "Hg (Jul 1, 12:00 PM)
Average70 °F90%29.73 "Hg
* Reported Jun 22 10:00 PM — Jul 7 10:00 PM, Hamamatsu, Weather by CustomWeather, © 2015

Note: Actual official high and low records may vary slightly from our data, if they occured in-between our weather recording intervals... More about our weather records

Advertising

Hamamatsu weather history for previous 24 hours

 ConditionsComfort  
Time TempWeatherWind HumidityBarometerVisibility
10:00 PM
Tue, Jul 7
68 °FFog.5 mph99%29.99 "Hg1 mi
9:00 PM68 °FFog.3 mph99%29.98 "Hg1 mi
8:00 PM69 °FMild.3 mph99%29.96 "Hg1 mi
7:00 PM69 °FLight rain. Overcast.3 mph98%29.93 "Hg1 mi
6:00 PM70 °FLight rain. Cloudy.1 mph98%29.92 "Hg1 mi
5:00 PM70 °FLight rain. Cloudy.2 mph97%29.92 "Hg2 mi
4:00 PM69 °FLight rain. Cloudy.5 mph98%29.93 "Hg2 mi
3:00 PM70 °FLight rain. Cloudy.5 mph97%29.94 "Hg2 mi
2:00 PM71 °FLight rain. Cloudy.2 mph94%29.93 "Hg7 mi
1:00 PM70 °FLight rain. Cloudy.5 mph96%29.93 "Hg4 mi
11:00 AM71 °FMild.3 mph91%29.94 "Hg10 mi
10:00 AM70 °FMild.5 mph92%29.93 "Hg10 mi
9:00 AM70 °FMild.3 mph93%29.93 "Hg7 mi
8:00 AM69 °FLight rain. Cloudy.2 mph93%29.93 "Hg3 mi
7:00 AM68 °FFog.2 mph96%29.93 "Hg1 mi
5:00 AM67 °FFog.2 mph98%29.89 "Hg1 mi
4:00 AM67 °FFog.2 mph98%29.88 "Hg3 mi
3:00 AM67 °FFog.1 mph98%29.89 "Hg3 mi
2:00 AM68 °FFog.2 mph97%29.90 "Hg3 mi
1:00 AM67 °FFog.5 mph98%29.90 "Hg4 mi
12:00 AM68 °FMild.2 mph97%29.92 "Hg7 mi
11:00 PM
Mon, Jul 6
68 °FLight rain. Overcast.6 mph98%29.91 "Hg4 mi
Weather by CustomWeather, © 2015

See weather overviewHow to use our weather pages